Year,Month,Day,Hour,Minute,Value (Times are PST for temperature in C)
2015,11,24,00,00,3.20
2015,11,24,00,01,3.20
2015,11,24,00,02,3.20
2015,11,24,00,03,3.20
2015,11,24,00,04,3.20
2015,11,24,00,05,3.20
2015,11,24,00,06,3.20
2015,11,24,00,09,3.20
2015,11,24,00,10,3.20
2015,11,24,00,11,3.20
2015,11,24,00,12,3.20
2015,11,24,00,13,3.20
2015,11,24,00,14,3.20
2015,11,24,00,15,3.20
2015,11,24,00,16,3.20
2015,11,24,00,17,3.20
2015,11,24,00,18,3.20
2015,11,24,00,19,3.20
2015,11,24,00,20,3.20
2015,11,24,00,21,3.20
2015,11,24,00,22,3.20
2015,11,24,00,23,3.20
2015,11,24,00,24,3.20
2015,11,24,00,25,3.20
2015,11,24,00,26,3.20
2015,11,24,00,27,3.20
2015,11,24,00,28,3.20
2015,11,24,00,29,3.20
2015,11,24,00,30,3.20
2015,11,24,00,31,3.20
2015,11,24,00,32,3.20
2015,11,24,00,33,3.20
2015,11,24,00,34,3.20
2015,11,24,00,35,3.10
2015,11,24,00,36,3.10
2015,11,24,00,37,3.10
2015,11,24,00,38,3.10
2015,11,24,00,39,3.10
2015,11,24,00,40,3.10
2015,11,24,00,42,3.10
2015,11,24,00,43,3.10
2015,11,24,00,44,3.10
2015,11,24,00,45,3.10
2015,11,24,00,46,3.10
2015,11,24,00,47,3.10
2015,11,24,00,48,3.10
2015,11,24,00,49,3.10
2015,11,24,00,50,3.10
2015,11,24,00,51,3.10
2015,11,24,00,52,3.10
2015,11,24,00,53,3.10
2015,11,24,00,54,3.10
2015,11,24,00,55,3.10
2015,11,24,00,56,3.10
2015,11,24,00,57,3.00
2015,11,24,00,58,3.10
2015,11,24,00,59,3.00
2015,11,24,01,00,3.00
2015,11,24,01,01,3.00
2015,11,24,01,02,3.00
2015,11,24,01,03,3.00
2015,11,24,01,04,3.00
2015,11,24,01,05,3.00
2015,11,24,01,06,3.00
2015,11,24,01,07,3.00
2015,11,24,01,09,3.00
2015,11,24,01,10,3.00
2015,11,24,01,11,3.00
2015,11,24,01,12,3.00
2015,11,24,01,13,3.00
2015,11,24,01,14,3.00
2015,11,24,01,15,3.00
2015,11,24,01,16,3.00
2015,11,24,01,17,3.00
2015,11,24,01,18,3.00
2015,11,24,01,19,3.00
2015,11,24,01,20,3.00
2015,11,24,01,21,3.00
2015,11,24,01,22,3.00
2015,11,24,01,23,3.00
2015,11,24,01,24,3.00
2015,11,24,01,25,3.00
2015,11,24,01,26,2.90
2015,11,24,01,29,2.90
2015,11,24,01,30,2.90
2015,11,24,01,31,2.90
2015,11,24,01,32,2.90
2015,11,24,01,33,2.90
2015,11,24,01,34,2.90
2015,11,24,01,35,2.90
2015,11,24,01,36,2.90
2015,11,24,01,37,2.90
2015,11,24,01,38,2.90
2015,11,24,01,39,2.90
2015,11,24,01,40,2.90
2015,11,24,01,41,2.90
2015,11,24,01,42,2.90
2015,11,24,01,43,2.90
2015,11,24,01,44,2.90
2015,11,24,01,45,2.90
2015,11,24,01,49,2.90
2015,11,24,01,51,2.90
2015,11,24,01,52,2.90
2015,11,24,01,53,2.90
2015,11,24,01,54,2.90
2015,11,24,01,55,2.90
2015,11,24,01,56,2.80
2015,11,24,01,57,2.80
2015,11,24,01,58,2.90
2015,11,24,01,59,2.80
2015,11,24,02,00,2.80
2015,11,24,02,01,2.80
2015,11,24,02,02,2.80
2015,11,24,02,03,2.80
2015,11,24,02,04,2.80
2015,11,24,02,05,2.80
2015,11,24,02,08,2.80
2015,11,24,02,09,2.80
2015,11,24,02,10,2.80
2015,11,24,02,11,2.80
2015,11,24,02,12,2.80
2015,11,24,02,13,2.80
2015,11,24,02,14,2.80
2015,11,24,02,15,2.80
2015,11,24,02,16,2.80
2015,11,24,02,17,2.80
2015,11,24,02,18,2.80
2015,11,24,02,19,2.80
2015,11,24,02,20,2.80
2015,11,24,02,21,2.80
2015,11,24,02,22,2.80
2015,11,24,02,23,2.80
2015,11,24,02,24,2.80
2015,11,24,02,25,2.80
2015,11,24,02,26,2.80
2015,11,24,02,27,2.80
2015,11,24,02,28,2.80
2015,11,24,02,29,2.80
2015,11,24,02,30,2.80
2015,11,24,02,31,2.80
2015,11,24,02,32,2.80
2015,11,24,02,33,2.80
2015,11,24,02,34,2.80
2015,11,24,02,36,2.80
2015,11,24,02,37,2.80
2015,11,24,02,38,2.80
2015,11,24,02,39,2.80
2015,11,24,02,40,2.80
2015,11,24,02,41,2.80
2015,11,24,02,42,2.80
2015,11,24,02,43,2.80
2015,11,24,02,44,2.80
2015,11,24,02,45,2.80
2015,11,24,02,46,2.80
2015,11,24,02,47,2.80
2015,11,24,02,48,2.80
2015,11,24,02,49,2.80
2015,11,24,02,50,2.80
2015,11,24,02,51,2.80
2015,11,24,02,52,2.80
2015,11,24,02,53,2.80
2015,11,24,02,54,2.80
2015,11,24,02,55,2.80
2015,11,24,02,56,2.80
2015,11,24,02,57,2.80
2015,11,24,02,59,2.80
2015,11,24,03,00,2.80
2015,11,24,03,01,2.80
2015,11,24,03,02,2.80
2015,11,24,03,03,2.80
2015,11,24,03,04,2.80
2015,11,24,03,05,2.80
2015,11,24,03,07,2.80
2015,11,24,03,08,2.80
2015,11,24,03,09,2.80
2015,11,24,03,10,2.80
2015,11,24,03,11,2.80
2015,11,24,03,12,2.80
2015,11,24,03,13,2.80
2015,11,24,03,14,2.80
2015,11,24,03,15,2.80
2015,11,24,03,16,2.80
2015,11,24,03,17,2.80
2015,11,24,03,18,2.80
2015,11,24,03,19,2.80
2015,11,24,03,20,2.80
2015,11,24,03,21,2.80
2015,11,24,03,22,2.80
2015,11,24,03,23,2.80
2015,11,24,03,24,2.80
2015,11,24,03,27,2.80
2015,11,24,03,28,2.80
2015,11,24,03,29,2.80
2015,11,24,03,30,2.80
2015,11,24,03,31,2.80
2015,11,24,03,32,2.80
2015,11,24,03,33,2.80
2015,11,24,03,35,2.80
2015,11,24,03,36,2.80
2015,11,24,03,37,2.80
2015,11,24,03,38,2.80
2015,11,24,03,39,2.80
2015,11,24,03,40,2.80
2015,11,24,03,41,2.80
2015,11,24,03,42,2.80
2015,11,24,03,43,2.80
2015,11,24,03,45,2.80
2015,11,24,03,46,2.80
2015,11,24,03,47,2.80
2015,11,24,03,48,2.80
2015,11,24,03,49,2.80
2015,11,24,03,50,2.80
2015,11,24,03,51,2.80
2015,11,24,03,52,2.80
2015,11,24,03,53,2.80
2015,11,24,03,54,2.80
2015,11,24,03,57,2.80
2015,11,24,03,58,2.80
2015,11,24,03,59,2.80
2015,11,24,04,00,2.80
2015,11,24,04,01,2.80
2015,11,24,04,02,2.80
2015,11,24,04,05,2.80
2015,11,24,04,06,2.80
2015,11,24,04,07,2.80
2015,11,24,04,08,2.80
2015,11,24,04,09,2.70
2015,11,24,04,10,2.70
2015,11,24,04,11,2.70
2015,11,24,04,12,2.70
2015,11,24,04,13,2.70
2015,11,24,04,14,2.70
2015,11,24,04,15,2.70
2015,11,24,04,16,2.70
2015,11,24,04,17,2.70
2015,11,24,04,18,2.70
2015,11,24,04,19,2.70
2015,11,24,04,20,2.70
2015,11,24,04,21,2.70
2015,11,24,04,22,2.70
2015,11,24,04,23,2.70
2015,11,24,04,25,2.70
2015,11,24,04,26,2.70
2015,11,24,04,27,2.70
2015,11,24,04,28,2.70
2015,11,24,04,29,2.70
2015,11,24,04,30,2.70
2015,11,24,04,31,2.70
2015,11,24,04,32,2.70
2015,11,24,04,33,2.70
2015,11,24,04,34,2.60
2015,11,24,04,35,2.60
2015,11,24,04,36,2.60
2015,11,24,04,37,2.60
2015,11,24,04,38,2.60
2015,11,24,04,39,2.60
2015,11,24,04,40,2.60
2015,11,24,04,41,2.60
2015,11,24,04,42,2.60
2015,11,24,04,43,2.60
2015,11,24,04,44,2.60
2015,11,24,04,45,2.60
2015,11,24,04,46,2.60
2015,11,24,04,47,2.60
2015,11,24,04,48,2.50
2015,11,24,04,49,2.50
2015,11,24,04,50,2.50
2015,11,24,04,51,2.50
2015,11,24,04,52,2.50
2015,11,24,04,53,2.50
2015,11,24,04,54,2.50
2015,11,24,04,55,2.50
2015,11,24,04,56,2.50
2015,11,24,04,57,2.50
2015,11,24,04,58,2.50
2015,11,24,04,59,2.40
2015,11,24,05,00,2.40
2015,11,24,05,02,2.40
2015,11,24,05,03,2.40
2015,11,24,05,04,2.40
2015,11,24,05,05,2.40
2015,11,24,05,06,2.30
2015,11,24,05,07,2.30
2015,11,24,05,08,2.30
2015,11,24,05,09,2.30
2015,11,24,05,10,2.30
2015,11,24,05,11,2.30
2015,11,24,05,12,2.20
2015,11,24,05,13,2.20
2015,11,24,05,14,2.20
2015,11,24,05,15,2.20
2015,11,24,05,16,2.20
2015,11,24,05,17,2.20
2015,11,24,05,18,2.20
2015,11,24,05,20,2.10
2015,11,24,05,23,2.10
2015,11,24,05,24,2.10
2015,11,24,05,25,2.10
2015,11,24,05,26,2.10
2015,11,24,05,27,2.10
2015,11,24,05,28,2.10
2015,11,24,05,29,2.00
2015,11,24,05,30,2.00
2015,11,24,05,31,2.00
2015,11,24,05,32,2.00
2015,11,24,05,33,1.90
2015,11,24,05,34,1.90
2015,11,24,05,35,1.90
2015,11,24,05,36,1.90
2015,11,24,05,37,1.90
2015,11,24,05,38,1.90
2015,11,24,05,39,1.90
2015,11,24,05,40,1.90
2015,11,24,05,41,1.90
2015,11,24,05,43,1.90
2015,11,24,05,44,1.90
2015,11,24,05,45,1.80
2015,11,24,05,46,1.80
2015,11,24,05,47,1.80
2015,11,24,05,48,1.80
2015,11,24,05,49,1.80
2015,11,24,05,50,1.80
2015,11,24,05,51,1.80
2015,11,24,05,52,1.70
2015,11,24,05,53,1.70
2015,11,24,05,54,1.70
2015,11,24,05,55,1.70
2015,11,24,05,56,1.70
2015,11,24,05,57,1.70
2015,11,24,05,58,1.60
2015,11,24,05,59,1.60
2015,11,24,06,00,1.60
2015,11,24,06,01,1.60
2015,11,24,06,03,1.60
2015,11,24,06,04,1.60
2015,11,24,06,05,1.60
2015,11,24,06,06,1.60
2015,11,24,06,07,1.60
2015,11,24,06,08,1.50
2015,11,24,06,09,1.40
2015,11,24,06,10,1.40
2015,11,24,06,11,1.40
2015,11,24,06,12,1.40
2015,11,24,06,13,1.40
2015,11,24,06,14,1.40
2015,11,24,06,15,1.30
2015,11,24,06,16,1.30
2015,11,24,06,18,1.30
2015,11,24,06,19,1.30
2015,11,24,06,20,1.30
2015,11,24,06,21,1.30
2015,11,24,06,22,1.30
2015,11,24,06,23,1.20
2015,11,24,06,24,1.20
2015,11,24,06,25,1.20
2015,11,24,06,26,1.20
2015,11,24,06,27,1.20
2015,11,24,06,28,1.20
2015,11,24,06,29,1.10
2015,11,24,06,30,1.10
2015,11,24,06,31,1.10
2015,11,24,06,32,1.00
2015,11,24,06,33,1.00
2015,11,24,06,34,1.00
2015,11,24,06,35,0.90
2015,11,24,06,36,0.90
2015,11,24,06,37,0.90
2015,11,24,06,38,0.90
2015,11,24,06,39,0.90
2015,11,24,06,40,0.80
2015,11,24,06,41,0.80
2015,11,24,06,42,0.80
2015,11,24,06,44,0.80
2015,11,24,06,45,0.80
2015,11,24,06,46,0.80
2015,11,24,06,47,0.70
2015,11,24,06,48,0.70
2015,11,24,06,49,0.70
2015,11,24,06,50,0.70
2015,11,24,06,51,0.70
2015,11,24,06,52,0.70
2015,11,24,06,54,0.70
2015,11,24,06,55,0.70
2015,11,24,06,56,0.60
2015,11,24,06,58,0.60
2015,11,24,06,59,0.60
2015,11,24,07,00,0.50
2015,11,24,07,03,0.50
2015,11,24,07,04,0.40
2015,11,24,07,05,0.40
2015,11,24,07,06,0.40
2015,11,24,07,07,0.40
2015,11,24,07,08,0.40
2015,11,24,07,09,0.30
2015,11,24,07,10,0.30
2015,11,24,07,11,0.30
2015,11,24,07,12,0.30
2015,11,24,07,13,0.30
2015,11,24,07,14,0.30
2015,11,24,07,15,0.30
2015,11,24,07,16,0.20
2015,11,24,07,17,0.20
2015,11,24,07,18,0.20
2015,11,24,07,19,0.20
2015,11,24,07,20,0.20
2015,11,24,07,21,0.20
2015,11,24,07,23,0.10
2015,11,24,07,24,0.10
2015,11,24,07,25,0.10
2015,11,24,07,26,0.10
2015,11,24,07,27,0.10
2015,11,24,07,28,0.10
2015,11,24,07,29,0.10
2015,11,24,07,30,0.10
2015,11,24,07,31,0.10
2015,11,24,07,32,0.10
2015,11,24,07,33,0.10
2015,11,24,07,34,0.10
2015,11,24,07,35,0.10
2015,11,24,07,36,0.10
2015,11,24,07,37,0.10
2015,11,24,07,38,0.10
2015,11,24,07,39,0.10
2015,11,24,07,41,0.10
2015,11,24,07,42,0.10
2015,11,24,07,43,0.10
2015,11,24,07,44,0.10
2015,11,24,07,45,0.10
2015,11,24,07,46,0.10
2015,11,24,07,47,0.10
2015,11,24,07,48,0.10
2015,11,24,07,49,0.10
2015,11,24,07,50,0.10
2015,11,24,07,51,0.10
2015,11,24,07,52,0.10
2015,11,24,07,53,0.10
2015,11,24,07,54,0.10
2015,11,24,07,55,0.10
2015,11,24,07,56,0.10
2015,11,24,07,57,0.10
2015,11,24,07,58,0.20
2015,11,24,07,59,0.20
2015,11,24,08,00,0.20
2015,11,24,08,02,0.20
2015,11,24,08,03,0.20
2015,11,24,08,04,0.20
2015,11,24,08,05,0.20
2015,11,24,08,06,0.20
2015,11,24,08,07,0.20
2015,11,24,08,08,0.20
2015,11,24,08,11,0.20
2015,11,24,08,12,0.20
2015,11,24,08,13,0.20
2015,11,24,08,14,0.20
2015,11,24,08,15,0.20
2015,11,24,08,17,0.20
2015,11,24,08,18,0.20
2015,11,24,08,19,0.20
2015,11,24,08,20,0.20
2015,11,24,08,21,0.20
2015,11,24,08,22,0.20
2015,11,24,08,24,0.20
2015,11,24,08,25,0.20
2015,11,24,08,26,0.20
2015,11,24,08,27,0.20
2015,11,24,08,28,0.20
2015,11,24,08,29,0.20
2015,11,24,08,30,0.20
2015,11,24,08,31,0.20
2015,11,24,08,32,0.20
2015,11,24,08,33,0.20
2015,11,24,08,34,0.20
2015,11,24,08,35,0.20
2015,11,24,08,36,0.30
2015,11,24,08,37,0.30
2015,11,24,08,40,0.30
2015,11,24,08,41,0.30
2015,11,24,08,42,0.30
2015,11,24,08,43,0.30
2015,11,24,08,44,0.40
2015,11,24,08,45,0.40
2015,11,24,08,46,0.40
2015,11,24,08,47,0.40
2015,11,24,08,48,0.40
2015,11,24,08,49,0.40
2015,11,24,08,50,0.50
2015,11,24,08,51,0.50
2015,11,24,08,52,0.50
2015,11,24,08,53,0.50
2015,11,24,08,54,0.50
2015,11,24,08,55,0.60
2015,11,24,08,56,0.60
2015,11,24,08,57,0.60
2015,11,24,08,58,0.60
2015,11,24,08,59,0.70
2015,11,24,09,00,0.70
2015,11,24,09,01,0.70
2015,11,24,09,02,0.80
2015,11,24,09,03,0.80
2015,11,24,09,06,1.10
2015,11,24,09,07,1.10
2015,11,24,09,08,1.20
2015,11,24,09,09,1.20
2015,11,24,09,10,1.30
2015,11,24,09,11,1.30
2015,11,24,09,12,1.40
2015,11,24,09,13,1.40
2015,11,24,09,14,1.40
2015,11,24,09,15,1.50
2015,11,24,09,17,1.50
2015,11,24,09,18,1.60
2015,11,24,09,19,1.60
2015,11,24,09,20,1.70
2015,11,24,09,21,1.70
2015,11,24,09,22,1.80
2015,11,24,09,23,1.80
2015,11,24,09,24,1.90
2015,11,24,09,25,2.00
2015,11,24,09,26,2.10
2015,11,24,09,27,2.20
2015,11,24,09,28,2.20
2015,11,24,09,29,2.30
2015,11,24,09,30,2.30
2015,11,24,09,31,2.40
2015,11,24,09,32,2.40
2015,11,24,09,33,2.50
2015,11,24,09,34,2.60
2015,11,24,09,35,2.70
2015,11,24,09,36,2.70
2015,11,24,09,37,2.80
2015,11,24,09,38,2.90
2015,11,24,09,39,2.90
2015,11,24,09,40,3.00
2015,11,24,09,41,3.10
2015,11,24,09,42,3.20
2015,11,24,09,43,3.20
2015,11,24,09,44,3.30
2015,11,24,09,45,3.30
2015,11,24,09,46,3.40
2015,11,24,09,47,3.40
2015,11,24,09,48,3.50
2015,11,24,09,49,3.60
2015,11,24,09,50,3.70
2015,11,24,09,51,3.70
2015,11,24,09,52,3.80
2015,11,24,09,53,3.90
2015,11,24,09,54,4.00
2015,11,24,09,55,4.10
2015,11,24,09,56,4.10
2015,11,24,09,57,4.20
2015,11,24,09,58,4.30
2015,11,24,09,59,4.30
2015,11,24,10,00,4.40
2015,11,24,10,01,4.50
2015,11,24,10,02,4.60
2015,11,24,10,03,4.60
2015,11,24,10,04,4.70
2015,11,24,10,05,4.70
2015,11,24,10,08,4.90
2015,11,24,10,09,5.00
2015,11,24,10,10,5.10
2015,11,24,10,11,5.10
2015,11,24,10,12,5.10
2015,11,24,10,13,5.20
2015,11,24,10,15,5.30
2015,11,24,10,16,5.30
2015,11,24,10,17,5.30
2015,11,24,10,18,5.40
2015,11,24,10,19,5.50
2015,11,24,10,20,5.60
2015,11,24,10,21,5.60
2015,11,24,10,22,5.70
2015,11,24,10,23,5.70
2015,11,24,10,24,5.80
2015,11,24,10,27,5.90
2015,11,24,10,28,5.90
2015,11,24,10,29,6.00
2015,11,24,10,30,6.10
2015,11,24,10,31,6.10
2015,11,24,10,32,6.10
2015,11,24,10,33,6.10
2015,11,24,10,34,6.10
2015,11,24,10,35,6.10
2015,11,24,10,36,6.10
2015,11,24,10,37,6.10
2015,11,24,10,38,6.10
2015,11,24,10,39,6.10
2015,11,24,10,40,6.10
2015,11,24,10,41,6.20
2015,11,24,10,42,6.20
2015,11,24,10,43,6.20
2015,11,24,10,44,6.20
2015,11,24,10,46,6.30
2015,11,24,10,47,6.30
2015,11,24,10,48,6.40
2015,11,24,10,49,6.40
2015,11,24,10,50,6.40
2015,11,24,10,51,6.40
2015,11,24,10,52,6.50
2015,11,24,10,53,6.50
2015,11,24,10,54,6.60
2015,11,24,10,55,6.60
2015,11,24,10,56,6.70
2015,11,24,10,57,6.70
2015,11,24,10,58,6.70
2015,11,24,10,59,6.80
2015,11,24,11,01,6.90
2015,11,24,11,02,6.90
2015,11,24,11,03,7.00
2015,11,24,11,04,7.10
2015,11,24,11,05,7.10
2015,11,24,11,07,7.10
2015,11,24,11,08,7.20
2015,11,24,11,09,7.20
2015,11,24,11,10,7.20
2015,11,24,11,11,7.20
2015,11,24,11,12,7.20
2015,11,24,11,13,7.30
2015,11,24,11,14,7.30
2015,11,24,11,15,7.30
2015,11,24,11,16,7.30
2015,11,24,11,17,7.40
2015,11,24,11,18,7.40
2015,11,24,11,19,7.40
2015,11,24,11,20,7.40
2015,11,24,11,21,7.40
2015,11,24,11,22,7.40
2015,11,24,11,23,7.40
2015,11,24,11,24,7.40
2015,11,24,11,25,7.40
2015,11,24,11,26,7.50
2015,11,24,11,27,7.50
2015,11,24,11,28,7.60
2015,11,24,11,29,7.60
2015,11,24,11,30,7.60
2015,11,24,11,31,7.60
2015,11,24,11,32,7.60
2015,11,24,11,33,7.60
2015,11,24,11,34,7.70
2015,11,24,11,35,7.70
2015,11,24,11,36,7.70
2015,11,24,11,37,7.70
2015,11,24,11,39,7.80
2015,11,24,11,40,7.80
2015,11,24,11,41,7.80
2015,11,24,11,42,7.80
2015,11,24,11,43,7.80
2015,11,24,11,44,7.80
2015,11,24,11,45,7.90
2015,11,24,11,46,7.90
2015,11,24,11,47,7.90
2015,11,24,11,48,7.90
2015,11,24,11,49,7.90
2015,11,24,11,50,7.90
2015,11,24,11,51,7.90
2015,11,24,11,52,7.90
2015,11,24,11,53,7.90
2015,11,24,11,54,7.90
2015,11,24,11,55,8.00
2015,11,24,11,56,8.00
2015,11,24,11,57,8.00
2015,11,24,11,58,8.10
2015,11,24,11,59,8.10
2015,11,24,12,00,8.10
2015,11,24,12,01,8.20
2015,11,24,12,02,8.20
2015,11,24,12,03,8.20
2015,11,24,12,04,8.20
2015,11,24,12,05,8.30
2015,11,24,12,07,8.30
2015,11,24,12,08,8.30
2015,11,24,12,09,8.30
2015,11,24,12,10,8.30
2015,11,24,12,11,8.30
2015,11,24,12,12,8.30
2015,11,24,12,13,8.30
2015,11,24,12,14,8.30
2015,11,24,12,15,8.30
2015,11,24,12,16,8.30
2015,11,24,12,17,8.30
2015,11,24,12,18,8.30
2015,11,24,12,19,8.30
2015,11,24,12,20,8.30
2015,11,24,12,21,8.40
2015,11,24,12,22,8.30
2015,11,24,12,23,8.40
2015,11,24,12,24,8.40
2015,11,24,12,27,8.40
2015,11,24,12,28,8.40
2015,11,24,12,29,8.40
2015,11,24,12,30,8.40
2015,11,24,12,31,8.40
2015,11,24,12,32,8.40
2015,11,24,12,33,8.40
2015,11,24,12,34,8.40
2015,11,24,12,35,8.50
2015,11,24,12,36,8.50
2015,11,24,12,37,8.50
2015,11,24,12,38,8.50
2015,11,24,12,39,8.60
2015,11,24,12,40,8.60
2015,11,24,12,41,8.60
2015,11,24,12,42,8.60
2015,11,24,12,43,8.60
2015,11,24,12,44,8.60
2015,11,24,12,45,8.60
2015,11,24,12,48,8.60
2015,11,24,12,49,8.60
2015,11,24,12,50,8.60
2015,11,24,12,51,8.60
2015,11,24,12,52,8.70
2015,11,24,12,53,8.70
2015,11,24,12,54,8.70
2015,11,24,12,55,8.70
2015,11,24,12,56,8.70
2015,11,24,12,57,8.70
2015,11,24,12,58,8.70
2015,11,24,12,59,8.70
2015,11,24,13,01,8.70
2015,11,24,13,02,8.70
2015,11,24,13,03,8.70
2015,11,24,13,04,8.70
2015,11,24,13,05,8.70
2015,11,24,13,06,8.70
2015,11,24,13,07,8.80
2015,11,24,13,08,8.80
2015,11,24,13,09,8.80
2015,11,24,13,10,8.80
2015,11,24,13,11,8.80
2015,11,24,13,12,8.80
2015,11,24,13,13,8.80
2015,11,24,13,14,8.70
2015,11,24,13,15,8.70
2015,11,24,13,16,8.70
2015,11,24,13,17,8.70
2015,11,24,13,18,8.70
2015,11,24,13,19,8.70
2015,11,24,13,20,8.70
2015,11,24,13,21,8.70
2015,11,24,13,22,8.70
2015,11,24,13,23,8.80
2015,11,24,13,24,8.80
2015,11,24,13,25,8.70
2015,11,24,13,26,8.80
2015,11,24,13,27,8.80
2015,11,24,13,30,8.80
2015,11,24,13,31,8.80
2015,11,24,13,32,8.80
2015,11,24,13,33,8.80
2015,11,24,13,34,8.80
2015,11,24,13,35,8.80
2015,11,24,13,36,8.80
2015,11,24,13,37,8.80
2015,11,24,13,38,8.90
2015,11,24,13,40,8.90
2015,11,24,13,41,8.90
2015,11,24,13,42,9.00
2015,11,24,13,43,9.00
2015,11,24,13,44,9.00
2015,11,24,13,45,9.10
2015,11,24,13,46,9.10
2015,11,24,13,47,9.10
2015,11,24,13,48,9.10
2015,11,24,13,50,9.20
2015,11,24,13,51,9.20
2015,11,24,13,52,9.20
2015,11,24,13,53,9.20
2015,11,24,13,54,9.20
2015,11,24,13,55,9.20
2015,11,24,13,56,9.10
2015,11,24,13,57,9.20
2015,11,24,13,58,9.20
2015,11,24,13,59,9.20
2015,11,24,14,00,9.20
2015,11,24,14,01,9.10
2015,11,24,14,02,9.10
2015,11,24,14,03,9.10
2015,11,24,14,04,9.10
2015,11,24,14,05,9.10
2015,11,24,14,06,9.10
2015,11,24,14,07,9.10
2015,11,24,14,08,9.10
2015,11,24,14,10,9.10
2015,11,24,14,11,9.10
2015,11,24,14,12,9.10
2015,11,24,14,13,9.10
2015,11,24,14,14,9.10
2015,11,24,14,15,9.10
2015,11,24,14,16,9.10
2015,11,24,14,17,9.10
2015,11,24,14,18,9.20
2015,11,24,14,19,9.20
2015,11,24,14,20,9.20
2015,11,24,14,21,9.20
2015,11,24,14,22,9.20
2015,11,24,14,23,9.20
2015,11,24,14,24,9.20
2015,11,24,14,25,9.10
2015,11,24,14,26,9.20
2015,11,24,14,27,9.20
2015,11,24,14,28,9.20
2015,11,24,14,29,9.20
2015,11,24,14,30,9.10
2015,11,24,14,32,9.10
2015,11,24,14,33,9.10
2015,11,24,14,34,9.10
2015,11,24,14,35,9.10
2015,11,24,14,36,9.10
2015,11,24,14,37,9.10
2015,11,24,14,38,9.10
2015,11,24,14,39,9.00
2015,11,24,14,40,9.10
2015,11,24,14,41,9.00
2015,11,24,14,42,9.00
2015,11,24,14,43,9.00
2015,11,24,14,44,9.00
2015,11,24,14,45,8.90
2015,11,24,14,46,8.90
2015,11,24,14,47,8.90
2015,11,24,14,48,8.90
2015,11,24,14,49,8.80
2015,11,24,14,50,8.80
2015,11,24,14,51,8.80
2015,11,24,14,53,8.80
2015,11,24,14,54,8.70
2015,11,24,14,55,8.70
2015,11,24,14,56,8.70
2015,11,24,14,57,8.70
2015,11,24,14,58,8.70
2015,11,24,14,59,8.70
2015,11,24,15,00,8.70
2015,11,24,15,01,8.60
2015,11,24,15,02,8.60
2015,11,24,15,03,8.60
2015,11,24,15,04,8.60
2015,11,24,15,05,8.60
2015,11,24,15,06,8.60
2015,11,24,15,07,8.60
2015,11,24,15,08,8.60
2015,11,24,15,09,8.60
2015,11,24,15,10,8.50
2015,11,24,15,11,8.50
2015,11,24,15,12,8.40
2015,11,24,15,14,8.30
2015,11,24,15,15,8.30
2015,11,24,15,16,8.30
2015,11,24,15,17,8.30
2015,11,24,15,18,8.20
2015,11,24,15,19,8.20
2015,11,24,15,20,8.20
2015,11,24,15,21,8.20
2015,11,24,15,22,8.20
2015,11,24,15,23,8.20
2015,11,24,15,24,8.20
2015,11,24,15,25,8.20
2015,11,24,15,26,8.20
2015,11,24,15,27,8.20
2015,11,24,15,28,8.10
2015,11,24,15,29,8.10
2015,11,24,15,30,8.10
2015,11,24,15,31,8.10
2015,11,24,15,32,8.10
2015,11,24,15,34,8.10
2015,11,24,15,35,8.00
2015,11,24,15,36,8.00
2015,11,24,15,37,8.00
2015,11,24,15,39,8.00
2015,11,24,15,40,7.90
2015,11,24,15,41,7.90
2015,11,24,15,42,7.90
2015,11,24,15,43,7.90
2015,11,24,15,44,7.90
2015,11,24,15,45,7.90
2015,11,24,15,46,7.80
2015,11,24,15,47,7.80
2015,11,24,15,48,7.80
2015,11,24,15,49,7.80
2015,11,24,15,50,7.80
2015,11,24,15,51,7.70
2015,11,24,15,52,7.70
2015,11,24,15,53,7.70
2015,11,24,15,55,7.60
2015,11,24,15,56,7.60
2015,11,24,15,57,7.50
2015,11,24,15,58,7.50
2015,11,24,15,59,7.40
2015,11,24,16,00,7.40
2015,11,24,16,01,7.30
2015,11,24,16,02,7.30
2015,11,24,16,03,7.30
2015,11,24,16,04,7.30
2015,11,24,16,05,7.20
2015,11,24,16,06,7.20
2015,11,24,16,07,7.20
2015,11,24,16,09,7.10
2015,11,24,16,10,7.10
2015,11,24,16,11,7.00
2015,11,24,16,12,7.00
2015,11,24,16,13,6.90
2015,11,24,16,14,6.90
2015,11,24,16,16,6.80
2015,11,24,16,17,6.80
2015,11,24,16,18,6.80
2015,11,24,16,19,6.80
2015,11,24,16,21,6.70
2015,11,24,16,22,6.70
2015,11,24,16,23,6.70
2015,11,24,16,24,6.60
2015,11,24,16,25,6.60
2015,11,24,16,26,6.60
2015,11,24,16,27,6.50
2015,11,24,16,28,6.50
2015,11,24,16,29,6.40
2015,11,24,16,30,6.40
2015,11,24,16,31,6.30
2015,11,24,16,32,6.30
2015,11,24,16,33,6.30
2015,11,24,16,34,6.30
2015,11,24,16,36,6.20
2015,11,24,16,37,6.20
2015,11,24,16,38,6.20
2015,11,24,16,39,6.10
2015,11,24,16,40,6.10
2015,11,24,16,44,6.00
2015,11,24,16,45,6.00
2015,11,24,16,46,6.00
2015,11,24,16,47,6.00
2015,11,24,16,48,6.00
2015,11,24,16,49,5.90
2015,11,24,16,50,5.90
2015,11,24,16,51,5.90
2015,11,24,16,52,5.90
2015,11,24,16,53,5.90
2015,11,24,16,54,5.80
2015,11,24,16,55,5.80
2015,11,24,16,56,5.80
2015,11,24,16,57,5.80
2015,11,24,16,58,5.80
2015,11,24,16,59,5.80
2015,11,24,17,00,5.80
2015,11,24,17,01,5.70
2015,11,24,17,02,5.70
2015,11,24,17,03,5.70
2015,11,24,17,04,5.70
2015,11,24,17,05,5.70
2015,11,24,17,06,5.70
2015,11,24,17,07,5.70
2015,11,24,17,08,5.70
2015,11,24,17,09,5.70
2015,11,24,17,10,5.60
2015,11,24,17,11,5.60
2015,11,24,17,13,5.60
2015,11,24,17,14,5.60
2015,11,24,17,15,5.50
2015,11,24,17,17,5.40
2015,11,24,17,18,5.40
2015,11,24,17,19,5.40
2015,11,24,17,20,5.40
2015,11,24,17,21,5.30
2015,11,24,17,22,5.30
2015,11,24,17,23,5.30
2015,11,24,17,24,5.30
2015,11,24,17,25,5.30
2015,11,24,17,26,5.30
2015,11,24,17,27,5.20
2015,11,24,17,28,5.20
2015,11,24,17,29,5.20
2015,11,24,17,30,5.20
2015,11,24,17,31,5.20
2015,11,24,17,32,5.10
2015,11,24,17,33,5.10
2015,11,24,17,34,5.10
2015,11,24,17,35,5.10
2015,11,24,17,36,5.00
2015,11,24,17,38,4.90
2015,11,24,17,40,4.80
2015,11,24,17,41,4.80
2015,11,24,17,42,4.80
2015,11,24,17,43,4.70
2015,11,24,17,44,4.70
2015,11,24,17,45,4.70
2015,11,24,17,46,4.70
2015,11,24,17,47,4.70
2015,11,24,17,48,4.70
2015,11,24,17,49,4.70
2015,11,24,17,50,4.70
2015,11,24,17,51,4.70
2015,11,24,17,52,4.70
2015,11,24,17,53,4.60
2015,11,24,17,54,4.60
2015,11,24,17,55,4.60
2015,11,24,17,56,4.60
2015,11,24,17,57,4.60
2015,11,24,17,58,4.60
2015,11,24,17,59,4.50
2015,11,24,18,00,4.40
2015,11,24,18,01,4.40
2015,11,24,18,02,4.30
2015,11,24,18,03,4.30
2015,11,24,18,04,4.20
2015,11,24,18,05,4.20
2015,11,24,18,07,4.00
2015,11,24,18,08,3.90
2015,11,24,18,09,3.80
2015,11,24,18,10,3.80
2015,11,24,18,11,3.70
2015,11,24,18,12,3.60
2015,11,24,18,13,3.60
2015,11,24,18,14,3.50
2015,11,24,18,15,3.40
2015,11,24,18,16,3.30
2015,11,24,18,17,3.30
2015,11,24,18,18,3.30
2015,11,24,18,19,3.30
2015,11,24,18,20,3.30
2015,11,24,18,21,3.20
2015,11,24,18,22,3.20
2015,11,24,18,23,3.20
2015,11,24,18,24,3.20
2015,11,24,18,25,3.10
2015,11,24,18,26,3.10
2015,11,24,18,27,3.00
2015,11,24,18,28,3.00
2015,11,24,18,29,2.90
2015,11,24,18,30,2.90
2015,11,24,18,31,2.90
2015,11,24,18,32,2.80
2015,11,24,18,33,2.80
2015,11,24,18,34,2.80
2015,11,24,18,35,2.80
2015,11,24,18,36,2.70
2015,11,24,18,37,2.70
2015,11,24,18,38,2.70
2015,11,24,18,39,2.60
2015,11,24,18,40,2.60
2015,11,24,18,41,2.60
2015,11,24,18,42,2.50
2015,11,24,18,43,2.40
2015,11,24,18,44,2.30
2015,11,24,18,45,2.30
2015,11,24,18,46,2.20
2015,11,24,18,47,2.20
2015,11,24,18,48,2.20
2015,11,24,18,49,2.10
2015,11,24,18,50,2.10
2015,11,24,18,51,2.00
2015,11,24,18,52,2.00
2015,11,24,18,53,2.00
2015,11,24,18,54,2.00
2015,11,24,18,55,2.00
2015,11,24,18,56,2.00
2015,11,24,18,57,2.00
2015,11,24,18,58,2.00
2015,11,24,18,59,2.10
2015,11,24,19,00,2.10
2015,11,24,19,01,2.10
2015,11,24,19,02,2.10
2015,11,24,19,03,2.10
2015,11,24,19,04,2.10
2015,11,24,19,05,2.10
2015,11,24,19,06,2.10
2015,11,24,19,07,2.10
2015,11,24,19,08,2.10
2015,11,24,19,09,2.20
2015,11,24,19,10,2.20
2015,11,24,19,11,2.20
2015,11,24,19,12,2.20
2015,11,24,19,13,2.20
2015,11,24,19,14,2.30
2015,11,24,19,15,2.30
2015,11,24,19,16,2.30
2015,11,24,19,17,2.30
2015,11,24,19,18,2.30
2015,11,24,19,19,2.30
2015,11,24,19,20,2.30
2015,11,24,19,21,2.30
2015,11,24,19,22,2.30
2015,11,24,19,23,2.20
2015,11,24,19,24,2.20
2015,11,24,19,25,2.20
2015,11,24,19,26,2.20
2015,11,24,19,27,2.20
2015,11,24,19,28,2.20
2015,11,24,19,29,2.20
2015,11,24,19,30,2.20
2015,11,24,19,31,2.20
2015,11,24,19,32,2.20